Location: Unspecified
(47.3532°N, 122.5883°W)
Time: 12:17:36
(UTC-08:00)

Genesis I - Visible Passes

Search period start: 17 January 2018 00:00
Search period end: 27 January 2018 00:00
Orbit: 489 x 539 km, 64.5° (Epoch: 16 January)

Date Brightness Start Highest point End Pass type
(mag) Time Alt. Az. Time Alt. Az. Time Alt. Az.
23 Jan 5.8 19:37:03 10° NNW 19:37:37 13° NNW 19:37:37 13° NNW visible
24 Jan 5.4 19:20:50 10° NNW 19:22:10 17° N 19:22:10 17° N visible
25 Jan 4.9 19:04:37 10° NNW 19:06:46 22° N 19:06:46 22° N visible
26 Jan 4.4 18:48:25 10° NNW 18:51:29 27° NNE 18:51:29 27° NNE visible
26 Jan 6.3 20:25:53 10° NW 20:26:28 14° NW 20:26:28 14° NW visible
